EB1RD-13 Weather Reports


Display with metric or nautical units.
time (UTC)temp
F
wind
direction
speed
MPH
gust
MPH
rain 1hr
in
rain 24hr
in
rain mn
in
humidity
%
barometer
mb
20260508055614 52 0.0 1.0 0.00 0.02 0.00 85 1007.7
20260508054632 52 90 1.0 3.0 0.00 0.02 0.00 85 1007.7
20260508053610 52 84 0.0 2.0 0.00 0.02 0.00 84 1007.7
20260508052610 52 82 1.0 2.0 0.00 0.02 0.00 85 1007.8
20260508051606 52 0.0 0.0 0.00 0.02 0.00 85 1007.6
20260508050604 52 105 0.0 2.0 0.00 0.02 0.00 84 1007.6
20260508045602 52 62 1.0 2.0 0.00 0.02 0.00 84 1007.6
20260508044602 52 90 0.0 2.0 0.00 0.02 0.00 84 1007.5
20260508043558 52 275 1.0 3.0 0.00 0.02 0.00 84 1007.6
20260508042556 52 0.0 0.0 0.00 0.02 0.00 84 1007.6
20260508041556 52 60 0.0 2.0 0.00 0.02 0.00 84 1007.7
20260508040553 52 0.0 2.0 0.00 0.02 0.00 83 1007.9
20260508035551 51 225 0.0 3.0 0.00 0.02 0.00 84 1007.9
20260508034549 52 110 2.0 4.0 0.00 0.02 0.00 83 1008.1
20260508033546 52 87 2.0 4.0 0.00 0.02 0.00 83 1008.2
20260508032625 52 90 1.0 2.0 0.00 0.02 0.00 82 1008.4
20260508031543 52 0.0 1.0 0.00 0.02 0.00 82 1008.5
20260508030540 52 0.0 1.0 0.00 0.02 0.00 82 1008.4
20260508025538 52 0.0 2.0 0.00 0.02 0.00 82 1008.5
20260508024537 52 243 0.0 2.0 0.00 0.02 0.00 82 1008.6
20260508023535 52 101 0.0 2.0 0.00 0.02 0.00 81 1008.6
20260508022553 52 0.0 1.0 0.00 0.02 0.00 81 1008.6
20260508021551 52 0.0 0.0 0.00 0.02 0.00 81 1008.5
20260508020529 52 0.0 0.0 0.00 0.02 0.00 81 1008.6
20260508015527 52 0.0 2.0 0.00 0.02 0.00 81 1008.7
20260508014525 53 0.0 1.0 0.00 0.02 0.00 81 1008.8
20260508013523 53 0.0 1.0 0.00 0.02 0.00 81 1008.8
20260508012521 53 0.0 1.0 0.00 0.02 0.00 80 1008.8
20260508011519 53 92 1.0 4.0 0.00 0.02 0.00 80 1009.0
20260508010517 53 45 1.0 2.0 0.00 0.02 0.00 80 1009.2
20260508005515 53 0.0 2.0 0.00 0.02 0.00 80 1009.3
20260508004613 54 0.0 1.0 0.00 0.02 0.00 79 1009.3
20260508003611 54 0.0 1.0 0.00 0.02 0.00 79 1009.5
20260508002609 54 270 0.0 2.0 0.00 0.02 0.00 79 1009.4
20260508001607 54 0.0 0.0 0.00 0.02 0.00 78 1009.3
20260508000605 54 0.0 2.0 0.00 0.02 0.00 78 1009.5
20260507235623 54 45 0.0 2.0 0.00 0.02 0.00 78 1009.5
20260507234623 54 117 1.0 2.0 0.00 0.02 0.00 78 1009.6
20260507233559 54 90 0.0 2.0 0.00 0.02 0.00 76 1009.8
20260507232617 55 0.0 0.0 0.00 0.02 0.00 75 1010.0
20260507231555 55 45 2.0 4.0 0.00 0.02 0.00 73 1009.9
20260507230553 56 226 1.0 4.0 0.00 0.02 0.00 73 1010.0
20260507225551 56 233 1.0 4.0 0.00 0.02 0.00 74 1009.9
20260507224609 55 197 2.0 4.0 0.00 0.02 0.00 77 1009.9
20260507223547 55 222 2.0 4.0 0.00 0.02 0.00 78 1010.0
20260507222545 54 250 1.0 4.0 0.00 0.02 0.00 78 1009.8
20260507221543 54 90 0.0 2.0 0.00 0.02 0.00 78 1010.0
20260507220541 54 0.0 0.0 0.00 0.02 0.00 76 1010.1
20260507215539 54 0.0 2.0 0.00 0.02 0.02 75 1010.1
20260507214538 55 0.0 0.0 0.00 0.02 0.02 75 1010.1
20260507213536 55 0.0 0.0 0.00 0.02 0.02 75 1010.2
20260507212533 56 0.0 2.0 0.00 0.02 0.02 75 1010.3
20260507211531 56 0.0 1.0 0.00 0.02 0.02 75 1010.4
20260507210550 56 242 2.0 4.0 0.00 0.02 0.02 75 1010.4
20260507205528 56 135 0.0 2.0 0.00 0.02 0.02 74 1010.3
20260507204526 56 83 0.0 2.0 0.00 0.02 0.02 74 1010.0
20260507203525 56 90 0.0 2.0 0.00 0.02 0.02 74 1010.0
20260507202522 56 90 0.0 2.0 0.00 0.02 0.02 73 1009.9
20260507201520 56 0.0 2.0 0.00 0.02 0.02 70 1009.9
20260507200518 57 0.0 0.0 0.00 0.02 0.02 68 1009.8
20260507195516 58 0.0 1.0 0.00 0.02 0.02 66 1009.6
20260507194614 59 90 0.0 2.0 0.00 0.02 0.02 65 1009.6
20260507193612 59 69 0.0 3.0 0.00 0.02 0.02 63 1009.6
20260507192610 60 227 2.0 4.0 0.00 0.02 0.02 62 1009.6
20260507191608 61 203 1.0 4.0 0.00 0.02 0.02 59 1009.4
20260507190628 64 146 2.0 3.0 0.00 0.02 0.02 54 1009.2
20260507185604 64 0.0 1.0 0.00 0.02 0.02 55 1009.3
20260507184622 65 270 0.0 2.0 0.00 0.02 0.02 54 1009.3
20260507183602 64 158 0.0 2.0 0.01 0.02 0.02 58 1009.3
20260507182558 61 167 1.0 3.0 0.01 0.02 0.02 61 1009.1
20260507181637 61 192 1.0 2.0 0.01 0.02 0.02 59 1009.2
20260507180554 62 45 1.0 2.0 0.01 0.02 0.02 66 1009.2
20260507175552 62 100 2.0 5.0 0.01 0.02 0.02 67 1008.9
20260507174610 63 38 8.0 11.0 0.01 0.02 0.02 60 1008.9
20260507173548 64 55 0.0 3.0 0.00 0.01 0.01 61 1009.6
20260507172546 64 90 1.0 2.0 0.00 0.01 0.01 58 1009.6
20260507171544 64 50 1.0 2.0 0.00 0.01 0.01 56 1009.5
20260507170542 64 59 1.0 2.0 0.00 0.01 0.01 56 1009.4
20260507165540 65 20 1.0 3.0 0.00 0.01 0.01 56 1009.2
20260507164538 65 329 1.0 4.0 0.00 0.01 0.01 55 1009.0
20260507163537 65 290 1.0 5.0 0.00 0.01 0.01 55 1008.8
20260507162536 66 329 2.0 5.0 0.00 0.01 0.01 53 1008.6
20260507161554 67 282 2.0 4.0 0.01 0.01 0.01 51 1008.7
20260507160530 68 0 1.0 2.0 0.01 0.01 0.01 46 1008.6
20260507155528 69 351 2.0 4.0 0.01 0.01 0.01 50 1008.6
20260507154528 68 137 2.0 4.0 0.01 0.01 0.01 50 1008.6
20260507153525 66 240 2.0 4.0 0.01 0.01 0.01 56 1008.7
20260507152522 64 18 2.0 5.0 0.01 0.01 0.01 57 1008.6
20260507151520 63 233 3.0 5.0 0.00 0.00 0.00 56 1008.6
20260507150519 63 45 8.0 12.0 0.00 0.00 0.00 52 1008.2
20260507145517 65 24 3.0 5.0 0.00 0.00 0.00 52 1008.8
20260507144514 65 290 6.0 10.0 0.00 0.00 0.00 49 1009.0
20260507143613 66 283 3.0 7.0 0.00 0.00 0.00 48 1008.9
20260507142611 67 42 1.0 4.0 0.00 0.00 0.00 48 1008.9
20260507141609 68 13 4.0 9.0 0.00 0.00 0.00 45 1008.7
20260507140607 69 224 4.0 11.0 0.00 0.00 0.00 44 1008.6
20260507135605 67 351 3.0 8.0 0.00 0.00 0.00 48 1008.8
20260507134603 66 32 4.0 8.0 0.00 0.00 0.00 52 1008.8
20260507133621 67 30 5.0 8.0 0.00 0.00 0.00 47 1008.9
20260507132559 67 232 3.0 6.0 0.00 0.00 0.00 49 1009.3
20260507131559 67 47 4.0 6.0 0.00 0.00 0.00 48 1009.3
20260507130555 68 309 3.0 6.0 0.00 0.00 0.00 48 1009.2
20260507125553 68 283 4.0 8.0 0.00 0.00 0.00 49 1009.4
20260507124551 67 352 3.0 8.0 0.00 0.00 0.00 51 1009.4
20260507123549 67 47 4.0 8.0 0.00 0.00 0.00 52 1009.5
20260507122547 66 354 4.0 11.0 0.00 0.00 0.00 53 1009.3
20260507121545 66 74 4.0 8.0 0.00 0.00 0.00 51 1010.0
20260507120543 69 225 3.0 6.0 0.00 0.00 0.00 44 1009.9
20260507115541 69 8 2.0 4.0 0.00 0.00 0.00 44 1010.0
20260507114539 69 330 3.0 7.0 0.00 0.00 0.00 45 1010.3
20260507113537 68 322 2.0 4.0 0.00 0.00 0.00 48 1010.2
20260507112537 69 311 2.0 6.0 0.00 0.00 0.00 45 1010.4
20260507111533 68 325 2.0 5.0 0.00 0.00 0.00 48 1010.3
20260507110551 66 320 2.0 4.0 0.00 0.00 0.00 49 1010.2
20260507105529 66 50 4.0 7.0 0.00 0.00 0.00 47 1010.4
20260507104527 65 40 6.0 9.0 0.00 0.00 0.00 45 1010.5
20260507103525 66 24 4.0 6.0 0.00 0.00 0.00 44 1010.7
20260507102543 67 58 2.0 9.0 0.00 0.00 0.00 44 1010.8
20260507101521 64 179 2.0 4.0 0.00 0.00 0.00 48 1010.8
20260507100539 65 270 2.0 2.0 0.00 0.00 0.00 47 1010.9
20260507095607 64 357 2.0 4.0 0.00 0.00 0.00 49 1010.9
20260507094605 62 225 2.0 4.0 0.00 0.00 0.00 52 1011.1
20260507093545 63 6 3.0 6.0 0.00 0.00 0.00 49 1011.1
20260507092542 64 31 2.0 4.0 0.00 0.00 0.00 50 1011.2
20260507091539 62 287 2.0 4.0 0.00 0.00 0.00 53 1011.2
20260507090558 60 44 2.0 4.0 0.00 0.00 0.00 57 1011.2
20260507085535 60 53 2.0 5.0 0.00 0.00 0.00 54 1011.1
20260507084533 64 38 2.0 6.0 0.00 0.00 0.00 50 1011.1
20260507083533 65 92 1.0 3.0 0.00 0.00 0.00 54 1011.2
20260507082531 61 45 0.0 2.0 0.00 0.00 0.00 58 1011.3
20260507081529 60 346 1.0 2.0 0.00 0.00 0.00 65 1011.3
20260507080526 56 45 0.0 2.0 0.00 0.00 0.00 69 1011.4
20260507075525 56 322 1.0 2.0 0.00 0.00 0.00 69 1011.5
20260507074542 56 193 1.0 4.0 0.00 0.00 0.00 74 1011.6
20260507073520 54 225 1.0 3.0 0.00 0.00 0.00 74 1011.7
20260507072518 54 155 1.0 3.0 0.00 0.00 0.00 77 1011.6
20260507071516 54 0.0 2.0 0.00 0.00 0.00 80 1011.7
20260507070614 53 180 0.0 2.0 0.00 0.00 0.00 82 1011.8
20260507065612 52 225 0.0 2.0 0.00 0.00 0.00 83 1011.6
20260507064610 52 68 0.0 2.0 0.00 0.00 0.00 85 1011.7
20260507063610 53 90 1.0 2.0 0.00 0.00 0.00 86 1011.8
20260507062606 52 225 0.0 2.0 0.00 0.00 0.00 87 1011.7
20260507061604 50 211 1.0 3.0 0.00 0.00 0.00 88 1011.7
20260507060602 49 203 2.0 3.0 0.00 0.00 0.00 88 1011.6